www.pogodaiklimat.ru

Погода и климат >> Архив погоды >> Монголия >> Улаангом


ПОГОДА в Улаангоме

  • Прогноз погоды в Улаангоме
  • Монитор погоды в Улаангоме

АРХИВ ПОГОДЫ в Улаангоме

Время (UTC), дата Ветер
(напр.,м/с)
 
Видим.   Явления Облачность Т
(С)
Тd
(С)
f
(%)
Тe
(С)
Тes
(С)
Комфортность P
(гПа)
Po
(гПа)
Тmin
(С)
Tmax
(С)
R
(мм)
R24
(мм)
S
(см)
15 11.04 З 1 50 км 4/0
[Ac trans]
+7.0 -9.0 31 +7 +7 1019.5 909.3
18 11.04 З 2 50 км ясно +1.3 -7.0 54 -1 -1 1023.3 910.5
21 11.04 Ю 1 50 км ясно -2.4 -6.0 76 -4 -4 1025.5 911.0
00 12.04 Ю 2 50 км 5/0
[Ac lent]
-1.8 -4.8 80 -6 -5 1026.5 912.2 -3.5
03 12.04 С 2 50 км 5/0
[Cs]
+4.9 -10.0 33 +3 +10 1025.5 913.9
06 12.04 В 2 50 км ясно +9.4 -10.2 24 +9 +22 опасность
простуды
1022.5 912.9
09 12.04 В 2 50 км ясно +12.1 -10.2 20 +12 +19 1020.2 911.8
12 12.04 Ю 4 50 км 1/0
[Ci fib]
+10.7 -9.0 24 +9 +9 1020.9 911.9 +13.0
15 12.04 Ю 4 50 км ясно +3.1 -3.7 61 -1 -1 1026.2 913.8
18 12.04 Ю 2 50 км ясно +2.4 -5.7 55 -0 -0 1027.2 914.4
21 12.04 ЮЗ 3 50 км ясно +3.7 -8.6 40 +1 +1 1025.8 913.7
00 13.04 Ю 3 50 км ясно +3.1 -10.5 36 0 +1 1026.5 914.1 -0.1
03 13.04 Ю 5
{10}
50 км ясно +9.2 -7.9 29 +7 +11 1023.6 913.8
06 13.04 В 5 50 км ясно +10.1 -9.6 24 +8 +15 1020.9 911.7
09 13.04 СВ 4 50 км 1/0
[Ci]
+11.3 -10.9 20 +10 +15 1017.3 908.9
12 13.04 В 3 50 км 3/0
[Ci]
+9.8 -10.9 22 +8 +9 1017.1 908.2 +11.8
15 13.04 Ю 2 50 км ясно +3.2 -5.4 53 +1 +1 1019.6 908.0
18 13.04 Ю 4 50 км ясно +1.3 -5.6 60 -3 -3 1019.6 907.2
21 13.04 Ю 4 50 км ясно -1.2 -4.7 77 -7 -7 1020.0 906.6
00 14.04 Ю 4 50 км ясно +1.7 -6.4 55 -3 -2 1018.9 906.8 -1.4
03 14.04 В 1 50 км ясно +14.7 -10.9 16 +16 +25 1013.6 906.8
06 14.04 Ю 3 50 км 3/3 1000 м
[Cu hum]
+17.4 -13.4 11 +17 +25 1009.8 904.4
09 14.04 С 6 50 км 5/5 1000 м
[Cu med, cong]
+18.3 -12.7 11 +18 +19 1006.9 902.1
12 14.04 С 3 50 км 5/5 1000 м
[Cu hum]
+15.3 -8.9 18 +15 +15 1009.0 902.9 +19.9
15 14.04 З 2 н/о ясно +10.4 -8.8 25 +10 +10 1011.6 903.5
18 14.04 СЗ 2 н/о ясно +10.5 -7.7 27 +10 +10 1012.2 904.1
21 14.04 З 2 н/о ясно +6.2 -5.5 43 +5 +5 1012.2 902.5
00 15.04 Ю 4 50 км 8/4 600 м
[Sc Ac lent]
+5.9 -5.4 44 +3 +3 1011.0 901.3 +3.6
03 15.04 ЮЗ 6 50 км 8/0
[As trans]
+10.6 -7.6 27 +8 +10 1007.9 900.3
06 15.04 Ю 7 50 км 9/0
[Ac lent Cs]
+17.0 -9.0 16 +16 +18 1002.5 897.7
09 15.04 В 4 50 км 9/0
[Ac lent Cs]
+15.2 -4.2 26 +14 +17 1000.6 895.4
12 15.04 С 2 50 км 10/6 1000 м
[Frnb As trans]
+11.3 -7.0 27 +11 +11 1001.3 894.6 +18.0
15 15.04 Ю 1 50 км 9/0
[As op]
+6.6 -1.3 57 +6 +6 1001.3 892.9
18 15.04 Ю 3 50 км 9/0
[As op]
+5.0 -2.8 57 +2 +2 998.4 889.8
21 15.04 З 2 50 км 9/8 600 м
[Frnb As trans]
+5.0 -4.0 52 +3 +3 995.8 887.4
00 16.04 Ю 2 50 км 9/8 1000 м
[Frnb As trans]
+4.8 -2.5 59 +3 +3 994.5 886.2 +4.0
03 16.04 С 4 50 км 10/10
[Sc]
+9.2 -7.0 31 +7 +7 993.0 886.5
06 16.04 З 8 4000 м сильная пыльная буря {дождь} 8/4 600 м
[Sc Ac cuf]
+13.6 -0.4 38 +11 +12 992.5 887.6
09 16.04 З 12 4000 м сильная пыльная буря {метель} 8/5 600 м
[Cu med, cong Ac lent]
+13.6 -0.4 38 +11 +11 994.8 889.6
12 16.04 В 3 50 км в посл. час дождь {метель} 9/9 600 м
[Sc]
+10.7 +1.2 52 +9 +9 999.4 892.7 +19.8 0.0
15 16.04 С 2 н/о {дождь} 8/0
[As op]
+8.2 -0.8 53 +7 +7 1004.5 896.4
18 16.04 З 1 н/о {дождь} 8/8 600 м
[Sc]
+5.2 -2.6 57 +4 +4 1008.2 898.6
21 16.04 З 2 н/о 8/8 600 м
[Sc]
+2.6 -3.1 66 -0 -0 1011.9 900.9
00 17.04 штиль 0 50 км в посл. час дождь 10/10 600 м
[Sc]
+3.2 -2.1 68 +3 +3 1013.9 902.9 +2.5 0.0
03 17.04 ЮВ 4 50 км 9/6 600 м
[Cu Sc Ac trans]
+6.9 -2.3 52 +4 +5 1013.0 903.5
06 17.04 В 3 50 км 8/6 600 м
[Cu med, cong Ci]
+8.6 -4.6 39 +7 +11 1012.0 903.2
09 17.04 ЮВ 5 50 км 6/4 600 м
[Cu med, cong Ac trans Ci ing]
+10.0 -4.8 35 +8 +10 1010.1 902.0
12 17.04 В 3 50 км 3/0
[Cs]
+8.0 -6.2 36 +6 +6 1010.7 901.8 +10.1
15 17.04 З 1 50 км 5/0
[Ac lent Ci]
+3.8 -5.2 52 +3 +3 1013.6 901.9
18 17.04 Ю 4 50 км 4/0
[Ac lent]
+1.3 -3.2 72 -4 -4 1013.3 901.6
21 17.04 Ю 4 50 км ясно -1.1 -3.8 82 -7 -7 1013.1 900.5
00 18.04 Ю 3 50 км 3/0
[Ac lent]
+1.0 -3.7 71 -3 -3 1011.0 899.5 -1.2
03 18.04 В 3 50 км 8/0
[Ac lent Cs]
+8.9 -5.4 36 +7 +11 1006.8 898.7
06 18.04 В 3 50 км 5/0
[Ac lent Cs]
+11.2 -5.7 30 +10 +18 1002.3 895.5
09 18.04 СВ 3 20 км 5/0
[Cs]
+17.5 -3.9 23 +18 +23 994.4 890.6
12 18.04 З 9
{13}
10 км 5/0
[Cs]
+17.6 -7.0 18 +16 +16 993.7 890.0 +21.7

 

Местоположение метеостанции Улаангом (Монголия): широта 49.80 долгота 92.08 высота над уровнем моря 939 м.

В архиве по умолчанию представлена погода в Улаангоме за последнюю неделю. Архивные данные за месяц целиком и за предыдущие месяцы, начиная с января 2011 года, Вы можете получить, выбрав интересующий диапазон дат из раскрывающегося списка и нажав кнопку "Ввод!".


*Определитесь, кто Вы:
робот инопланетянин человек

Внимание! Время в таблицах - всемирное. Для получения местного времени необходимо прибавить поправку, которая равна 8 ч.

Смотрите также архив погоды в соседних городах и на ближайших метеорологических станциях:

Погода в Умнегове (Монголия) (91 км)
Погода в Хандагайты (Тува, Россия) (105 км)
Погода в Ногооннууре (Монголия) (126 км)
Погода в Завхане (Монголия) (132 км)
Погода в Мугур-Аксы (Тува, Россия) (134 км)
Погода в Баруунтурууне (Монголия) (168 км)
Погода в Чадане (Тува, Россия) (168 км)
Погода в Углие (Монголия) (183 км)
Погода в Шагонаре (Тува, Россия) (186 км)
Погода в Тээли (Тува, Россия) (190 км)

Пояснения к столбцам:

Ветер - указаны скорость ветра в м/с - средняя за 10 мин, порывы в срок и между сроками (в фигурных скобках) и направление, откуда дует ветер: С - северный, СВ - северо-восточный, В - восточный, ЮВ - юго-восточный, Ю - южный, ЮЗ - юго-западный, З - западный, СЗ - северо-западный.
Видимость - горизонтальная дальность видимости в метрах или километрах. При видимости от 1 до 10 км при отсутствии осадков обычно наблюдается дымка, при ухудшении видимости до 1 км и менее - туман. В сухую погоду видимость может ухудшаться дымом, пылью или мглою.
Явления - указаны атмосферные явления, наблюдавшиеся в срок или в последний час перед сроком; фигурными скобками обозначены явления, наблюдавшиеся между сроками (за 1-3 часа до срока); квадратными скобками обозначены град или гололедные отложения с указанием их диаметра в мм.
Облачность - указаны через наклонную черту общая и нижняя облачность в баллах и высота нижней границы облаков в метрах; квадратными скобками обозначены формы облаков: Ci - перистые, Cs - перисто-слоистые, Cc - перисто-кучевые, Ac - высококучевые, As - высокослоистые, Sc - слоисто-кучевые, Ns - слоисто-дождевые, Cu - кучевые, Cb - кучево-дождевые. Подробнее классификацию облаков см. в Атласе облаков (PDF).
T - Температура воздуха - температура, измеренная на высоте 2 м над землей.
Td - Температура точки росы - температура, при понижении до которой содержащийся в воздухе водяной пар достигнет насыщения.
f - Относительная влажность воздуха - влажноcть воздуха, измеренная на высоте 2 м над землей.
Te - Эффективная температура - температура, которую ощущает одетый по сезону человек в тени. Характеристика душности погоды. При расчете учитывается влияние влажности воздуха и скорости ветра на теплоощущения человека.
Tes - Эффективная температура на солнце - температура, которую ощущает человек, с поправкой на солнечный нагрев. Характеристика знойности погоды. Зависит от высоты солнца над горизонтом, облачности и скорости ветра. Ночью, в пасмурную погоду, а также при ветре 12 м/с и более поправка равна нулю.
P - Атмосферное давление - приведенное к уровню моря атмосферное давление.
Po - Атмосферное давление - измеренное на уровне метеостанции атмосферное давление.
Tmin - Минимальная температура - минимум температуры воздуха на высоте 2 м над землей.
Tmax - Максимальная температура - максимум температуры воздуха на высоте 2 м над землей.
R - Количество осадков - Количество выпавших осадков за период времени, мм. При наведении курсора мыши на число - период времени, за который выпало указанное количество осадков.
R24 - Количество осадков - Количество выпавших осадков за 24 часа, мм.
S - Снежный покров - Высота снежного покрова, см. При наведении курсора мыши на число - состояние снежного покрова и степень покрытия местности в баллах.